Lid_Strength_Index
2 2 2 2 2 2 2 2 2 2 2 3 3 3 3 3 2 2 4 3 2 -2 -1 0 2 5 5 5 5 5 7 7 8 7 6 4 5 4 3 4 4 3 4 2 1
2 2 2 2 2 2 2 2 2 2 2 2 3 3 3 3 2 3 1 -0 -2 -2 2 3 4 6 6 6 6 6 6 7 6 6 7 5 5 4 4 4 5 4 3 2 1
2 2 2 2 2 2 2 2 2 2 2 3 3 3 3 2 3 4 -1 -1 -2 -2 2 2 3 5 7 6 7 6 6 6 6 6 6 6 5 4 4 6 4 4 4 3 2
2 2 2 2 2 2 2 2 2 2 3 3 3 3 2 1 6 1 -2 -2 -3 2 3 3 4 6 7 8 6 8 6 6 6 7 7 6 5 4 4 4 3 2 3 2 2
3 3 2 2 2 2 2 2 2 3 3 3 3 3 2 3 4 -1 -2 -2 2 3 4 4 5 5 6 7 7 8 6 6 5 5 4 5 5 5 4 3 2 2 2 3 2
2 3 3 3 3 2 3 3 3 3 4 3 3 2 2 5 2 -1 1 2 3 4 5 4 5 4 5 6 7 6 7 6 6 5 4 4 4 5 4 2 3 3 3 3 2
3 3 3 3 3 3 3 3 3 3 3 3 3 1 3 5 1 -1 1 3 3 4 5 4 3 4 4 6 5 6 7 6 6 5 4 4 6 5 3 3 3 3 3 3 2
3 3 3 3 3 3 3 3 2 2 2 2 2 1 5 2 -0 2 3 3 3 3 4 3 3 4 4 4 5 6 5 7 5 5 5 5 7 4 3 4 4 4 3 3 2
3 3 3 3 3 3 3 3 1 1 1 1 1 2 6 3 3 2 2 4 3 4 3 4 3 4 5 6 6 6 8 7 7 5 5 5 6 4 3 4 4 4 3 3 3
3 4 4 3 3 3 4 3 1 0 0 1 1 4 4 4 2 3 3 3 6 6 5 5 4 5 6 7 9 8 8 7 7 6 5 6 6 4 4 4 4 4 4 3 3
3 4 4 4 4 4 3 1 2 3 2 4 5 6 4 3 3 3 3 4 5 6 7 6 7 8 7 7 7 7 8 7 6 5 6 6 6 5 4 4 4 3 3 3 3
3 4 4 4 4 4 2 3 3 3 5 4 4 4 4 4 5 3 3 4 5 7 6 7 8 7 6 7 7 7 8 7 6 5 6 6 6 5 4 4 3 3 3 3 3
4 4 4 4 4 2 2 3 2 2 5 5 5 5 5 4 4 4 2 3 5 6 7 8 7 7 7 8 8 7 8 7 8 6 5 6 7 6 4 4 3 3 3 3 3
4 4 4 5 3 2 2 2 1 2 7 6 5 6 5 4 6 3 2 3 5 6 6 6 6 7 8 8 7 8 6 6 7 8 9 6 10 7 5 5 4 3 3 3 3
4 4 4 5 3 3 2 1 1 3 11 6 6 3 5 5 5 5 2 3 5 6 6 7 7 7 8 7 6 7 6 6 7 7 8 8 9 7 6 6 5 4 3 3 2
4 4 4 3 2 2 2 1 2 7 12 7 6 6 6 5 6 5 4 3 4 5 5 6 4 6 6 6 6 5 6 6 6 7 10 8 9 9 7 6 5 4 3 3 3
4 5 5 3 2 2 1 2 7 10 6 8 7 6 6 6 6 6 6 6 7 8 8 6 6 5 5 6 5 6 7 10 11 11 11 8 9 8 6 5 5 5 4 3 3
5 6 4 2 1 2 1 5 10 9 8 6 6 7 7 6 6 6 6 7 6 6 8 9 10 6 5 6 7 7 7 10 13 12 11 8 10 8 5 4 4 4 4 4 3
6 2 1 0 1 1 4 8 8 8 7 7 6 8 8 7 7 6 7 7 6 6 8 8 9 6 5 5 5 7 8 6 9 8 11 9 8 6 5 6 5 5 5 4 4
5 4 1 1 -0 2 5 8 7 6 6 6 8 7 8 8 7 7 7 7 7 6 5 7 9 6 6 5 5 6 6 9 9 13 13 10 10 9 7 7 6 6 5 4 3
4 5 3 1 1 4 8 7 7 5 5 7 7 8 7 8 7 8 8 7 6 6 5 6 8 8 6 7 7 7 8 8 8 9 12 13 10 6 8 7 7 6 5 4 4
3 5 3 1 5 4 6 6 8 6 5 6 6 7 7 7 8 8 8 7 5 6 7 6 8 10 8 5 5 6 7 7 10 10 9 11 10 6 6 6 6 5 5 4 3
6 6 2 2 7 7 6 7 6 6 6 6 7 6 6 7 9 8 7 6 5 6 7 7 9 11 9 7 6 8 8 8 9 9 11 12 10 6 6 6 5 5 5 4 3
6 7 4 3 4 6 7 8 8 7 7 6 6 6 7 8 6 8 8 6 6 5 5 6 8 10 12 10 8 9 8 7 8 11 10 10 9 7 6 7 6 5 4 4 4
5 7 6 6 6 6 7 8 9 9 7 6 7 7 7 9 8 8 7 7 7 7 6 6 10 8 8 8 9 10 10 9 9 9 11 10 9 7 7 7 5 5 4 4 4
7 7 5 5 6 6 8 7 8 7 7 8 8 8 7 8 8 9 8 7 8 7 7 7 10 9 11 10 10 12 11 11 11 10 10 10 9 6 5 5 5 5 5 5 5
5 4 6 8 7 7 6 7 7 7 6 6 6 7 7 7 6 6 5 5 6 7 8 8 9 10 12 11 11 12 10 10 9 8 9 10 9 6 6 6 5 5 5 4 4